"startDT [UTC]","vpos","CH4 [ppm]","stdev(CH4) [ppm]","CO2 [ppm]","stdev(CO2) [ppm]","H2O [ppm]","stdev(H2O)","p_LGR [torr]","T_LGR [C]","mt1_LGR [us]","mt2_LGR [us]","T_ECpre [C]","T_EC1 [C]","T_EC2 [C]","p_inlet [hPa]","p_in [hPa]","p_out [hPa]","T_inlet [C]","RH_inlet [%]","dwpt_inlet [C]","T_vent [C]","RH_vent [%]","dwpt_vent [C]","flow_vent [l min-1]","flow_inlet [l min-1]","dwpt_sample [C]","T_room [C]"
2012-01-25 00:00:00,0.0,1.9182,0.0009,403.86,0.28,-1.0,0.0,138.10,28.48,24.61,36.33,0.04,-272.74,-272.74,-51,553,-944,23.4,1.4,-32.6,23.4,1.4,-32.1,5.73,2.38,-31.0,27.9
2012-01-25 00:01:00,0.0,1.9180,0.0009,403.94,0.24,0.1,6.2,138.10,28.50,24.61,36.33,0.04,-272.74,-272.74,-51,553,-943,23.4,1.4,-32.6,23.4,1.4,-32.2,5.73,2.34,-31.0,28.0
2012-01-25 00:02:00,0.0,1.9185,0.0010,403.97,0.23,-0.6,2.2,138.09,28.53,24.61,36.33,0.04,-272.73,-272.74,-50,553,-943,23.5,1.3,-32.7,23.5,1.4,-32.1,5.73,2.50,-30.9,28.2
2012-01-25 00:03:00,0.0,1.9202,0.0013,404.19,0.26,-1.0,0.0,138.09,28.56,24.61,36.33,0.04,-272.74,-272.74,-50,553,-944,23.5,1.4,-32.6,23.5,1.4,-32.1,5.73,2.50,-30.8,27.9
2012-01-25 00:04:00,0.0,1.9196,0.0010,404.00,0.24,-0.8,1.2,138.09,28.58,24.61,36.33,0.04,-272.74,-272.74,-50,553,-944,23.5,1.3,-32.6,23.5,1.4,-32.1,5.73,2.43,-30.7,27.6
2012-01-25 00:05:00,0.0,1.9208,0.0009,404.28,0.24,-1.0,0.2,138.10,28.60,24.61,36.34,0.04,-272.74,-272.74,-51,553,-944,23.6,1.4,-32.5,23.5,1.4,-32.1,5.73,2.44,-30.8,27.4
2012-01-25 00:06:00,0.0,1.9197,0.0008,404.12,0.21,0.2,6.2,138.10,28.61,24.61,36.33,0.04,-272.74,-272.74,-51,553,-944,23.6,1.4,-32.5,23.5,1.4,-32.1,5.73,2.42,-30.8,27.1
2012-01-25 00:07:00,0.0,1.9194,0.0010,404.15,0.20,-1.0,0.0,138.11,28.62,24.61,36.33,0.04,-272.74,-272.74,-51,554,-944,23.5,1.3,-32.7,23.5,1.4,-32.1,5.73,2.37,-30.9,27.0
2012-01-25 00:08:00,0.0,1.9201,0.0011,404.22,0.25,-1.0,0.0,138.11,28.62,24.61,36.33,0.04,-272.73,-272.74,-50,554,-944,23.5,1.4,-32.5,23.5,1.4,-32.1,5.73,2.34,-31.0,27.0
2012-01-25 00:09:00,0.0,1.9204,0.0009,404.27,0.22,-0.7,2.3,138.11,28.62,24.61,36.33,0.04,-272.74,-272.73,-50,554,-945,23.5,1.4,-32.5,23.5,1.4,-32.1,5.73,2.39,-31.1,26.7
2012-01-25 00:10:00,0.0,1.9209,0.0009,404.27,0.22,-1.0,0.0,138.12,28.61,24.61,36.33,0.04,-272.74,-272.74,-51,554,-944,23.5,1.4,-32.5,23.4,1.4,-32.2,5.73,2.48,-31.1,26.6
2012-01-25 00:11:00,0.0,1.9199,0.0012,403.99,0.27,-1.0,0.0,138.12,28.60,24.61,36.33,0.04,-272.74,-272.74,-51,554,-944,23.5,1.4,-32.6,23.4,1.4,-32.2,5.73,2.52,-31.1,26.6
2012-01-25 00:12:00,0.0,1.9196,0.0012,403.92,0.24,-1.0,0.0,138.12,28.59,24.61,36.33,0.04,-272.74,-272.74,-51,554,-945,23.5,1.3,-32.8,23.4,1.4,-32.4,5.73,2.48,-31.2,26.5
2012-01-25 00:13:00,0.0,1.9192,0.0008,403.94,0.24,-1.0,0.0,138.13,28.58,24.61,36.33,0.04,-272.74,-272.74,-50,554,-945,23.5,1.3,-32.9,23.4,1.4,-32.6,5.73,2.38,-31.2,26.4
2012-01-25 00:14:00,0.0,1.9196,0.0011,403.78,0.26,-1.0,0.0,138.13,28.56,24.61,36.34,0.04,-272.74,-272.74,-51,554,-944,23.5,1.3,-32.9,23.3,1.4,-32.6,5.73,2.32,-31.3,26.4
2012-01-25 00:15:00,0.0,1.9205,0.0009,404.05,0.24,-1.0,0.0,138.13,28.55,24.61,36.33,0.04,-272.73,-272.74,-51,553,-944,23.4,1.3,-33.0,23.3,1.4,-32.6,5.73,2.37,-31.3,26.4
2012-01-25 00:16:00,0.0,1.9190,0.0012,403.83,0.25,-1.0,0.0,138.13,28.53,24.61,36.34,0.04,-272.73,-272.74,-51,553,-945,23.4,1.3,-33.0,23.3,1.4,-32.7,5.73,2.47,-31.3,26.3
2012-01-25 00:17:00,0.0,1.9189,0.0010,403.84,0.22,-1.0,0.0,138.14,28.52,24.61,36.33,0.04,-272.74,-272.74,-51,554,-944,23.4,1.3,-33.2,23.3,1.3,-32.9,5.73,2.53,-31.4,26.1
2012-01-25 00:18:00,0.0,1.9183,0.0008,403.89,0.24,-1.0,0.0,138.14,28.50,24.61,36.33,0.04,-272.74,-272.74,-50,554,-944,23.3,1.3,-33.1,23.2,1.3,-32.9,5.73,2.48,-31.4,26.0
2012-01-25 00:19:00,0.0,1.9185,0.0009,403.93,0.22,-1.0,0.0,138.14,28.49,24.60,36.33,0.04,-272.74,-272.74,-51,553,-945,23.3,1.3,-33.0,23.2,1.4,-32.6,5.73,2.37,-31.4,26.1
2012-01-25 00:20:00,0.0,1.9172,0.0010,403.76,0.34,-1.0,0.0,138.14,28.47,24.61,36.33,0.25,-270.82,-272.65,-51,553,-944,23.3,1.3,-33.1,23.2,1.4,-32.7,5.42,2.34,-35.3,26.0
2012-01-25 00:21:00,0.0,1.9174,0.0008,403.86,0.24,-1.0,0.0,138.14,28.45,24.60,36.33,0.04,-272.74,-272.74,-51,553,-944,23.3,1.3,-33.1,23.2,1.4,-32.7,5.73,2.37,-31.5,25.9
2012-01-25 00:22:00,0.0,1.9169,0.0008,403.80,0.23,-1.0,0.0,138.14,28.44,24.61,36.33,0.04,-272.74,-272.74,-50,553,-944,23.3,1.3,-33.2,23.1,1.4,-32.7,5.73,2.49,-31.5,25.9
2012-01-25 00:23:00,0.0,1.9169,0.0010,403.91,0.22,-1.0,0.0,138.15,28.43,24.60,36.33,0.04,-272.74,-272.74,-51,553,-944,23.2,1.3,-33.2,23.1,1.3,-32.9,5.73,2.54,-31.6,25.9
2012-01-25 00:24:00,0.0,1.9163,0.0007,403.93,0.23,-1.0,0.0,138.15,28.41,24.60,36.32,0.04,-272.74,-272.74,-51,553,-944,23.2,1.3,-33.3,23.1,1.3,-32.9,5.73,2.44,-31.6,26.3
2012-01-25 00:25:00,0.0,1.9169,0.0008,403.90,0.22,-1.0,0.0,138.14,28.40,24.61,36.33,0.04,-272.73,-272.74,-51,553,-944,23.2,1.3,-33.3,23.1,1.3,-32.9,5.73,2.40,-31.5,26.8
2012-01-25 00:26:00,0.0,1.9177,0.0009,403.77,0.17,-1.0,0.0,138.13,28.40,24.61,36.34,0.04,-272.73,-272.74,-51,553,-944,23.2,1.3,-33.3,23.2,1.3,-32.9,5.73,2.37,-31.4,27.1
2012-01-25 00:27:00,0.0,1.9185,0.0009,403.82,0.21,-1.0,0.0,138.13,28.41,24.61,36.33,0.04,-272.74,-272.74,-51,552,-944,23.3,1.3,-33.3,23.2,1.4,-32.8,5.73,2.35,-31.2,27.3
2012-01-25 00:28:00,0.0,1.9194,0.0010,403.94,0.23,-0.6,3.0,138.12,28.42,24.60,36.33,0.04,-272.74,-272.74,-51,553,-944,23.3,1.3,-33.2,23.2,1.3,-32.9,5.73,2.43,-31.1,27.5
2012-01-25 00:29:00,0.0,1.9199,0.0009,404.09,0.20,-0.8,1.7,138.11,28.44,24.60,36.33,0.04,-272.74,-272.74,-51,552,-944,23.3,1.3,-33.2,23.3,1.3,-32.8,5.73,2.52,-31.0,27.7
2012-01-25 00:30:00,0.0,1.9201,0.0010,404.16,0.23,-0.5,4.2,138.11,28.46,24.61,36.34,0.04,-272.74,-272.74,-51,552,-944,23.4,1.3,-33.2,23.3,1.3,-32.8,5.73,2.43,-30.9,27.8
2012-01-25 00:31:00,0.0,1.9205,0.0009,404.31,0.22,-1.0,0.0,138.10,28.49,24.61,36.33,0.04,-272.74,-272.74,-50,553,-944,23.4,1.3,-33.4,23.4,1.3,-33.0,5.73,2.32,-30.8,27.9
2012-01-25 00:32:00,0.0,1.9211,0.0008,404.47,0.24,-0.1,4.9,138.10,28.51,24.61,36.32,0.04,-272.74,-272.74,-50,553,-944,23.5,1.2,-33.5,23.4,1.3,-33.1,5.73,2.44,-30.7,28.1
2012-01-25 00:33:00,0.0,1.9209,0.0008,404.35,0.26,-0.1,4.5,138.09,28.54,24.61,36.33,0.04,-272.74,-272.74,-51,553,-944,23.5,1.2,-33.6,23.5,1.3,-33.2,5.73,2.53,-30.6,28.2
2012-01-25 00:34:00,0.0,1.9206,0.0009,404.32,0.24,-0.0,4.2,138.09,28.57,24.61,36.33,0.04,-272.73,-272.74,-51,553,-944,23.5,1.2,-33.6,23.5,1.3,-33.1,5.73,2.43,-30.5,27.9
2012-01-25 00:35:00,0.0,1.9210,0.0008,404.35,0.24,-0.9,1.0,138.09,28.59,24.61,36.33,0.04,-272.73,-272.74,-50,553,-944,23.5,1.2,-33.8,23.5,1.3,-33.4,5.73,2.43,-30.5,27.5
2012-01-25 00:36:00,0.0,1.9211,0.0008,404.36,0.22,-0.9,0.5,138.10,28.60,24.61,36.33,0.04,-272.74,-272.74,-50,554,-944,23.6,1.2,-33.8,23.5,1.3,-33.4,5.73,2.46,-30.6,27.2
2012-01-25 00:37:00,0.0,1.9211,0.0008,404.30,0.23,1.2,8.1,138.10,28.62,24.61,36.34,0.04,-272.73,-272.74,-51,554,-944,23.5,1.2,-33.8,23.5,1.3,-33.4,5.73,2.43,-30.6,27.1
2012-01-25 00:38:00,0.0,1.9209,0.0009,404.28,0.20,0.1,6.3,138.11,28.62,24.61,36.33,0.04,-272.73,-272.74,-51,554,-944,23.5,1.2,-34.0,23.5,1.2,-33.5,5.73,2.36,-30.7,26.8
2012-01-25 00:39:00,0.0,1.9211,0.0008,403.89,0.20,-0.6,2.8,138.11,28.62,24.61,36.34,0.04,-272.73,-272.74,-51,554,-945,23.5,1.2,-34.2,23.5,1.2,-33.8,5.73,2.33,-30.8,26.8
2012-01-25 00:40:00,0.0,1.9215,0.0009,403.92,0.22,-1.0,0.0,138.12,28.62,24.61,36.33,0.04,-272.74,-272.74,-50,554,-944,23.5,1.1,-34.4,23.5,1.2,-34.0,5.73,2.40,-30.9,26.6
2012-01-25 00:41:00,0.0,1.9210,0.0007,404.01,0.23,-0.4,4.6,138.12,28.61,24.61,36.33,0.04,-272.74,-272.74,-50,554,-944,23.5,1.1,-34.7,23.5,1.2,-34.3,5.73,2.51,-30.9,26.6
2012-01-25 00:42:00,0.0,1.9204,0.0011,403.77,0.31,-0.5,3.8,138.12,28.60,24.61,36.33,0.04,-272.74,-272.74,-51,554,-945,23.5,1.1,-34.9,23.4,1.1,-34.6,5.73,2.54,-31.0,26.6
2012-01-25 00:43:00,0.0,1.9202,0.0009,403.25,0.28,-0.9,0.7,138.12,28.59,24.61,36.34,0.04,-272.74,-272.74,-51,554,-945,23.5,1.1,-35.1,23.4,1.1,-34.6,5.73,2.44,-31.1,26.5
2012-01-25 00:44:00,0.0,1.9187,0.0008,402.97,0.23,-1.0,0.2,138.13,28.58,24.61,36.33,0.04,-272.74,-272.74,-51,554,-944,23.5,1.0,-35.3,23.4,1.1,-34.9,5.73,2.32,-31.1,26.4
2012-01-25 00:45:00,0.0,1.9180,0.0011,402.88,0.24,-1.0,0.0,138.13,28.56,24.61,36.33,0.04,-272.74,-272.73,-50,554,-945,23.4,1.0,-35.3,23.3,1.1,-34.9,5.73,2.33,-31.2,26.4
2012-01-25 00:46:00,0.0,1.9156,0.0013,402.51,0.23,-1.0,0.0,138.13,28.55,24.61,36.33,0.04,-272.73,-272.74,-51,554,-945,23.4,1.0,-35.4,23.3,1.1,-35.2,5.73,2.45,-31.2,26.3
2012-01-25 00:47:00,0.0,1.9142,0.0011,402.10,0.41,-1.0,0.0,138.13,28.53,24.61,36.34,0.04,-272.73,-272.74,-51,554,-944,23.4,1.0,-35.5,23.3,1.1,-35.2,5.73,2.54,-31.3,26.4
2012-01-25 00:48:00,0.0,1.9120,0.0010,401.93,0.26,-1.0,0.0,138.14,28.52,24.61,36.33,0.04,-272.74,-272.74,-51,553,-945,23.3,1.0,-35.7,23.3,1.1,-35.2,5.73,2.49,-31.3,26.3
2012-01-25 00:49:00,0.0,1.9117,0.0010,401.85,0.29,-1.0,0.0,138.14,28.50,24.61,36.33,0.04,-272.73,-272.74,-50,554,-945,23.3,1.0,-35.7,23.3,1.1,-35.3,5.73,2.35,-31.3,26.3
2012-01-25 00:50:00,0.0,1.9116,0.0009,401.64,0.25,-1.0,0.0,138.14,28.49,24.61,36.33,0.04,-272.74,-272.74,-51,554,-944,23.3,1.0,-35.7,23.2,1.0,-35.5,5.73,2.31,-31.4,26.2
2012-01-25 00:51:00,0.0,1.9119,0.0009,401.66,0.25,-1.0,0.0,138.14,28.47,24.60,36.33,0.04,-272.74,-272.74,-51,553,-945,23.3,1.0,-35.9,23.2,1.1,-35.3,5.73,2.40,-31.4,26.2
2012-01-25 00:52:00,0.0,1.9123,0.0011,402.41,0.30,-1.0,0.0,138.14,28.46,24.61,36.33,0.04,-272.74,-272.74,-51,553,-944,23.3,1.0,-36.0,23.2,1.0,-35.4,5.73,2.53,-31.4,26.2
2012-01-25 00:53:00,0.0,1.9116,0.0009,402.48,0.20,-1.0,0.0,138.14,28.44,24.61,36.33,0.04,-272.74,-272.74,-50,553,-944,23.3,1.0,-36.0,23.2,1.0,-35.5,5.73,2.53,-31.5,26.0
2012-01-25 00:54:00,0.0,1.9110,0.0010,402.14,0.25,-1.0,0.0,138.15,28.42,24.61,36.32,0.04,-272.74,-272.74,-51,553,-944,23.2,1.0,-36.0,23.1,1.0,-35.5,5.73,2.39,-31.5,26.0
2012-01-25 00:55:00,0.0,1.9117,0.0010,402.49,0.24,-1.0,0.0,138.14,28.41,24.61,36.33,0.04,-272.74,-272.74,-51,552,-944,23.2,1.0,-36.0,23.1,1.0,-35.5,5.73,2.39,-31.5,26.5
2012-01-25 00:56:00,0.0,1.9120,0.0009,402.29,0.22,-1.0,0.0,138.14,28.40,24.60,36.34,0.04,-272.74,-272.73,-51,553,-944,23.2,1.0,-36.0,23.1,1.0,-35.6,5.73,2.45,-31.4,26.9
2012-01-25 00:57:00,0.0,1.9134,0.0009,402.51,0.25,-1.0,0.0,138.13,28.40,24.61,36.33,0.04,-272.74,-272.74,-51,553,-944,23.3,1.0,-36.1,23.2,1.0,-35.7,5.73,2.42,-31.3,27.2
2012-01-25 00:58:00,0.0,1.9130,0.0007,402.01,0.20,-0.6,3.2,138.12,28.41,24.61,36.33,0.04,-272.74,-272.74,-51,552,-944,23.3,1.0,-36.2,23.2,1.0,-35.8,5.73,2.35,-31.2,27.4
2012-01-25 00:59:00,0.0,1.9151,0.0014,402.78,0.43,-1.0,0.0,138.11,28.43,24.60,36.33,0.04,-272.74,-272.73,-51,552,-944,23.3,1.0,-36.3,23.3,1.0,-35.6,5.73,2.37,-31.0,27.6
2012-01-25 01:00:00,0.0,1.9154,0.0014,402.81,0.33,-1.0,0.0,138.11,28.45,24.61,36.33,0.04,-272.74,-272.74,-51,553,-944,23.3,1.0,-35.9,23.3,1.0,-35.6,5.73,2.50,-31.0,27.7
2012-01-25 01:01:00,0.0,1.9141,0.0008,402.27,0.24,-0.9,0.5,138.10,28.47,24.60,36.33,0.04,-272.74,-272.74,-51,553,-944,23.4,1.0,-35.8,23.3,1.0,-35.7,5.73,2.49,-30.9,27.9
2012-01-25 01:02:00,0.0,1.9145,0.0008,402.56,0.28,-1.0,0.0,138.10,28.49,24.61,36.33,0.04,-272.73,-272.74,-50,553,-944,23.4,1.0,-35.9,23.4,1.0,-35.5,5.73,2.34,-30.8,28.0
2012-01-25 01:03:00,0.0,1.9141,0.0010,402.53,0.33,-0.5,1.9,138.09,28.52,24.61,36.33,0.04,-272.74,-272.73,-50,553,-943,23.5,1.0,-35.8,23.4,1.0,-35.3,5.73,2.37,-30.7,28.1
2012-01-25 01:04:00,0.0,1.9138,0.0008,402.44,0.23,-0.0,4.7,138.09,28.55,24.61,36.33,0.04,-272.74,-272.74,-51,553,-944,23.5,1.0,-35.8,23.5,1.0,-35.4,5.73,2.52,-30.6,28.2
2012-01-25 01:05:00,0.0,1.9147,0.0011,402.59,0.25,0.6,5.3,138.09,28.57,24.61,36.33,0.04,-272.74,-272.74,-51,553,-944,23.5,1.0,-35.8,23.5,1.0,-35.3,5.73,2.47,-30.5,27.7
2012-01-25 01:06:00,0.0,1.9147,0.0009,402.62,0.22,0.3,4.5,138.09,28.60,24.61,36.33,0.04,-272.73,-272.74,-50,553,-944,23.5,1.0,-35.8,23.5,1.0,-35.4,5.73,2.44,-30.6,27.4
2012-01-25 01:07:00,0.0,1.9155,0.0009,402.74,0.23,0.1,6.2,138.10,28.61,24.60,36.33,0.04,-272.74,-272.74,-50,554,-944,23.6,1.0,-35.8,23.5,1.0,-35.3,5.73,2.42,-30.6,27.1
2012-01-25 01:08:00,0.0,1.9146,0.0009,402.74,0.23,-0.9,0.8,138.10,28.62,24.61,36.33,0.04,-272.74,-272.74,-50,554,-944,23.6,1.0,-35.7,23.5,1.0,-35.3,5.73,2.37,-30.7,26.9
2012-01-25 01:09:00,0.0,1.9153,0.0009,402.85,0.16,-1.0,0.0,138.11,28.62,24.61,36.33,0.04,-272.73,-272.74,-51,554,-945,23.5,1.0,-35.5,23.5,1.0,-35.4,5.73,2.34,-30.8,26.8
2012-01-25 01:10:00,0.0,1.9161,0.0009,402.96,0.24,-1.0,0.0,138.11,28.62,24.61,36.33,0.04,-272.74,-272.74,-51,554,-944,23.5,1.0,-35.5,23.5,1.1,-35.1,5.73,2.39,-30.8,26.7
2012-01-25 01:11:00,0.0,1.9159,0.0009,402.72,0.23,-0.4,4.3,138.12,28.62,24.61,36.34,0.04,-272.74,-272.74,-51,554,-945,23.5,1.0,-35.5,23.5,1.1,-35.0,5.73,2.49,-30.9,26.6
2012-01-25 01:12:00,0.0,1.9148,0.0006,402.58,0.22,-1.0,0.0,138.12,28.61,24.61,36.34,0.04,-272.74,-272.74,-50,554,-945,23.5,1.0,-35.5,23.4,1.1,-35.1,5.73,2.53,-31.0,26.6
2012-01-25 01:13:00,0.0,1.9148,0.0009,402.52,0.25,-1.0,0.0,138.12,28.60,24.61,36.33,0.04,-272.74,-272.74,-51,554,-944,23.5,1.0,-35.5,23.4,1.1,-35.1,5.73,2.47,-31.1,26.6
2012-01-25 01:14:00,0.0,1.9152,0.0009,402.53,0.25,-1.0,0.0,138.13,28.59,24.61,36.33,0.04,-272.74,-272.74,-51,554,-945,23.5,1.0,-35.3,23.4,1.1,-35.1,5.73,2.36,-31.2,26.4
2012-01-25 01:15:00,0.0,1.9150,0.0009,402.51,0.21,-1.0,0.2,138.13,28.58,24.61,36.33,0.04,-272.74,-272.74,-51,554,-945,23.5,1.0,-35.3,23.4,1.1,-35.1,5.73,2.32,-31.2,26.3
2012-01-25 01:16:00,0.0,1.9144,0.0011,402.49,0.19,-1.0,0.0,138.13,28.56,24.61,36.33,0.04,-272.74,-272.74,-50,554,-944,23.4,1.0,-35.3,23.3,1.1,-35.0,5.73,2.40,-31.3,26.4
2012-01-25 01:17:00,0.0,1.9144,0.0010,402.45,0.23,-1.0,0.0,138.13,28.55,24.61,36.33,0.04,-272.74,-272.74,-51,554,-944,23.4,1.0,-35.3,23.3,1.1,-35.1,5.73,2.51,-31.3,26.4
2012-01-25 01:18:00,0.0,1.9136,0.0008,402.34,0.24,-1.0,0.0,138.14,28.54,24.61,36.34,0.04,-272.74,-272.74,-51,554,-945,23.4,1.0,-35.3,23.3,1.1,-35.1,5.73,2.53,-31.4,26.3
2012-01-25 01:19:00,0.0,1.9141,0.0008,402.60,0.22,-1.0,0.0,138.14,28.52,24.60,36.33,0.04,-272.73,-272.73,-51,554,-945,23.3,1.0,-35.4,23.3,1.1,-35.2,5.73,2.43,-31.4,26.3
2012-01-25 01:20:00,0.0,1.9136,0.0009,402.63,0.26,-1.0,0.0,138.14,28.51,24.61,36.33,0.04,-272.74,-272.74,-50,553,-944,23.3,1.0,-35.4,23.2,1.1,-35.2,5.73,2.31,-31.5,26.2
2012-01-25 01:21:00,0.0,1.9136,0.0009,402.66,0.23,-1.0,0.0,138.14,28.49,24.61,36.33,0.04,-272.73,-272.74,-50,553,-945,23.3,1.0,-35.4,23.2,1.1,-35.0,5.73,2.34,-31.5,26.2
2012-01-25 01:22:00,0.0,1.9117,0.0010,402.28,0.26,-1.0,0.0,138.14,28.48,24.61,36.33,0.04,-272.74,-272.73,-51,554,-945,23.3,1.0,-35.4,23.2,1.1,-34.9,5.73,2.46,-31.5,26.2
2012-01-25 01:23:00,0.0,1.9100,0.0009,402.06,0.22,-1.0,0.0,138.14,28.46,24.61,36.33,0.04,-272.74,-272.74,-51,553,-944,23.3,1.0,-35.5,23.2,1.1,-35.0,5.73,2.55,-31.6,26.1
2012-01-25 01:24:00,0.0,1.9095,0.0009,401.79,0.23,-1.0,0.0,138.15,28.44,24.60,36.33,0.04,-272.74,-272.74,-51,553,-945,23.2,1.1,-35.3,23.2,1.1,-35.0,5.73,2.48,-31.6,26.1
2012-01-25 01:25:00,0.0,1.9105,0.0012,402.23,0.29,-1.0,0.0,138.15,28.43,24.60,36.32,0.04,-272.74,-272.74,-50,553,-944,23.2,1.1,-35.4,23.1,1.1,-35.0,5.73,2.34,-31.6,26.1
2012-01-25 01:26:00,0.0,1.9118,0.0011,402.41,0.23,-1.0,0.0,138.15,28.42,24.60,36.32,0.26,-270.83,-272.67,-51,553,-944,23.2,1.0,-35.4,23.1,1.1,-35.1,5.42,2.48,-35.5,26.5
2012-01-25 01:27:00,0.0,1.9112,0.0009,402.19,0.25,-1.0,0.0,138.14,28.41,24.60,36.32,0.04,-272.73,-272.73,-51,553,-944,23.2,1.0,-35.5,23.1,1.1,-35.2,5.73,2.46,-31.5,26.9
2012-01-25 01:28:00,0.0,1.9118,0.0009,402.08,0.24,-1.0,0.0,138.13,28.41,24.61,36.33,0.04,-272.74,-272.74,-51,553,-944,23.3,1.0,-35.7,23.2,1.1,-35.2,5.73,2.47,-31.4,27.2
2012-01-25 01:29:00,0.0,1.9129,0.0008,402.12,0.25,-1.0,0.0,138.12,28.42,24.60,36.33,0.04,-272.73,-272.74,-51,552,-944,23.3,1.0,-35.7,23.2,1.1,-35.2,5.73,2.39,-31.3,27.4
2012-01-25 01:30:00,0.0,1.9136,0.0008,402.26,0.24,-1.0,0.0,138.12,28.43,24.60,36.33,0.04,-272.73,-272.74,-51,553,-944,23.3,1.0,-35.7,23.3,1.1,-35.2,5.73,2.33,-31.2,27.6
2012-01-25 01:31:00,0.0,1.9141,0.0009,402.43,0.22,-0.9,0.6,138.11,28.45,24.60,36.33,0.04,-272.74,-272.74,-51,552,-944,23.3,1.0,-35.6,23.3,1.1,-35.2,5.73,2.42,-31.1,27.7
2012-01-25 01:32:00,0.0,1.9145,0.0009,402.67,0.24,-1.0,0.0,138.10,28.47,24.61,36.33,0.04,-272.74,-272.74,-50,553,-944,23.4,1.0,-35.4,23.3,1.1,-35.1,5.73,2.52,-31.1,27.9
2012-01-25 01:33:00,0.0,1.9149,0.0008,402.73,0.20,-1.0,0.0,138.10,28.49,24.61,36.33,0.04,-272.73,-272.74,-50,553,-944,23.4,1.0,-35.3,23.4,1.1,-35.1,5.73,2.43,-31.0,28.0
2012-01-25 01:34:00,0.0,1.9151,0.0009,402.86,0.20,-0.3,3.7,138.10,28.52,24.60,36.33,0.04,-272.74,-272.74,-50,553,-944,23.4,1.0,-35.3,23.4,1.1,-35.1,5.73,2.32,-30.9,28.1
2012-01-25 01:35:00,0.0,1.9160,0.0009,403.05,0.20,-0.9,1.1,138.09,28.55,24.61,36.33,0.04,-272.74,-272.74,-51,552,-944,23.5,1.0,-35.3,23.5,1.1,-34.9,5.73,2.45,-30.8,28.2
2012-01-25 01:36:00,0.0,1.9165,0.0010,403.17,0.20,-1.0,0.0,138.09,28.57,24.61,36.33,0.04,-272.74,-272.74,-51,553,-944,23.5,1.0,-35.2,23.5,1.1,-34.8,5.73,2.49,-30.7,27.7
2012-01-25 01:37:00,0.0,1.9168,0.0008,403.19,0.19,-0.7,2.2,138.09,28.59,24.61,36.34,0.04,-272.73,-272.74,-50,553,-944,23.6,1.0,-35.2,23.5,1.1,-34.8,5.73,2.43,-30.7,27.5
2012-01-25 01:38:00,0.0,1.9169,0.0008,403.31,0.24,-0.6,2.7,138.10,28.61,24.61,36.34,0.04,-272.74,-272.74,-50,554,-944,23.5,1.0,-35.3,23.5,1.1,-34.8,5.73,2.38,-30.8,27.1
2012-01-25 01:39:00,0.0,1.9174,0.0009,403.33,0.23,-1.0,0.2,138.10,28.62,24.61,36.33,0.04,-272.73,-272.74,-50,554,-945,23.5,1.0,-35.3,23.5,1.1,-34.9,5.73,2.37,-30.9,26.9
2012-01-25 01:40:00,0.0,1.9177,0.0009,403.37,0.20,-1.0,0.0,138.11,28.62,24.61,36.33,0.04,-272.73,-272.74,-51,554,-944,23.5,1.0,-35.3,23.5,1.1,-34.8,5.73,2.42,-31.0,26.9
2012-01-25 01:41:00,0.0,1.9177,0.0008,403.30,0.21,-1.0,0.0,138.11,28.62,24.61,36.33,0.04,-272.74,-272.74,-51,554,-945,23.5,1.0,-35.2,23.5,1.1,-34.8,5.73,2.51,-31.1,26.8
2012-01-25 01:42:00,0.0,1.9173,0.0011,403.26,0.20,-1.0,0.0,138.12,28.61,24.61,36.33,0.04,-272.74,-272.74,-51,554,-944,23.5,1.0,-35.3,23.4,1.1,-34.8,5.73,2.53,-31.2,26.8
2012-01-25 01:43:00,0.0,1.9171,0.0008,403.05,0.22,-1.0,0.0,138.12,28.60,24.61,36.34,0.04,-272.74,-272.74,-50,554,-945,23.5,1.0,-35.3,23.4,1.1,-34.8,5.73,2.44,-31.2,26.6
2012-01-25 01:44:00,0.0,1.9166,0.0009,403.11,0.25,-1.0,0.0,138.12,28.60,24.61,36.33,0.04,-272.73,-272.74,-51,554,-945,23.5,1.1,-34.9,23.4,1.1,-34.5,5.73,2.34,-31.3,26.5
2012-01-25 01:45:00,0.0,1.9164,0.0007,402.95,0.19,-1.0,0.0,138.12,28.59,24.61,36.34,0.04,-272.74,-272.74,-51,554,-944,23.5,1.1,-35.0,23.3,1.1,-34.8,5.73,2.33,-31.4,26.5
2012-01-25 01:46:00,0.0,1.9165,0.0008,402.99,0.22,-1.0,0.0,138.13,28.57,24.61,36.33,0.04,-272.74,-272.74,-51,554,-944,23.4,1.0,-35.3,23.3,1.1,-34.9,5.73,2.43,-31.4,26.4
2012-01-25 01:47:00,0.0,1.9158,0.0010,402.82,0.27,-1.0,0.0,138.13,28.56,24.61,36.33,0.04,-272.74,-272.74,-50,554,-945,23.4,1.1,-35.3,23.3,1.1,-34.9,5.73,2.53,-31.5,26.4
2012-01-25 01:48:00,0.0,1.9151,0.0008,402.74,0.24,-1.0,0.0,138.13,28.55,24.61,36.34,0.04,-272.74,-272.74,-50,554,-944,23.4,1.0,-35.4,23.3,1.1,-35.0,5.73,2.51,-31.5,26.4
2012-01-25 01:49:00,0.0,1.9156,0.0010,402.89,0.18,-1.0,0.0,138.14,28.53,24.61,36.33,0.04,-272.74,-272.74,-51,553,-944,23.3,1.1,-35.1,23.3,1.1,-34.9,5.73,2.40,-31.6,26.3
2012-01-25 01:50:00,0.0,1.9148,0.0008,402.81,0.24,-1.0,0.0,138.14,28.51,24.61,36.34,0.04,-272.73,-272.74,-51,553,-945,23.3,1.1,-35.1,23.2,1.1,-34.7,5.73,2.31,-31.6,26.2
2012-01-25 01:51:00,0.0,1.9145,0.0009,402.91,0.24,-1.0,0.0,138.14,28.50,24.61,36.33,0.04,-272.74,-272.74,-50,553,-944,23.3,1.1,-35.1,23.2,1.1,-34.8,5.73,2.35,-31.7,26.1
2012-01-25 01:52:00,0.0,1.9139,0.0008,402.77,0.25,-1.0,0.0,138.14,28.48,24.61,36.33,0.04,-272.74,-272.74,-50,553,-944,23.3,1.1,-35.2,23.2,1.1,-34.7,5.73,2.48,-31.7,26.0
2012-01-25 01:53:00,0.0,1.9133,0.0009,402.60,0.21,-1.0,0.0,138.14,28.46,24.61,36.34,0.04,-272.74,-272.74,-51,554,-944,23.3,1.1,-35.2,23.2,1.1,-34.7,5.73,2.54,-31.8,26.0
2012-01-25 01:54:00,0.0,1.9128,0.0011,402.75,0.20,-1.0,0.0,138.14,28.45,24.61,36.32,0.04,-272.74,-272.74,-51,553,-944,23.3,1.1,-35.1,23.1,1.1,-34.7,5.73,2.46,-31.8,25.8
2012-01-25 01:55:00,0.0,1.9120,0.0010,402.49,0.21,-1.0,0.0,138.14,28.43,24.61,36.33,0.04,-272.74,-272.74,-51,553,-944,23.2,1.1,-35.2,23.2,1.1,-34.7,5.73,2.34,-31.8,25.9
2012-01-25 01:56:00,0.0,1.9125,0.0012,402.58,0.23,-1.0,0.0,138.14,28.42,24.60,36.33,0.04,-272.73,-272.74,-50,553,-944,23.2,1.1,-35.2,23.1,1.1,-34.8,5.73,2.35,-31.8,26.1
2012-01-25 01:57:00,0.0,1.9130,0.0008,402.69,0.22,-1.0,0.0,138.14,28.40,24.61,36.33,0.04,-272.73,-272.74,-51,553,-944,23.2,1.1,-35.3,23.1,1.1,-34.7,5.73,2.44,-31.8,26.6
2012-01-25 01:58:00,0.0,1.9143,0.0009,402.80,0.23,-1.0,0.0,138.13,28.40,24.61,36.33,0.04,-272.73,-272.74,-51,553,-944,23.2,1.1,-35.4,23.1,1.1,-34.7,5.73,2.48,-31.7,27.0
2012-01-25 01:59:00,0.0,1.9163,0.0008,403.11,0.28,-1.0,0.0,138.12,28.41,24.60,36.33,0.04,-272.74,-272.73,-51,552,-944,23.3,1.0,-35.4,23.2,1.1,-34.8,5.73,2.48,-31.6,27.2
2012-01-25 02:00:00,0.0,1.9176,0.0012,403.15,0.20,-1.0,0.0,138.12,28.42,24.60,36.34,0.04,-272.74,-272.73,-51,553,-944,23.3,1.0,-35.5,23.2,1.1,-35.1,5.73,2.39,-31.5,27.4
2012-01-25 02:01:00,0.0,1.9186,0.0009,403.31,0.25,-1.0,0.0,138.11,28.44,24.60,36.33,0.04,-272.74,-272.74,-51,553,-944,23.3,1.0,-35.7,23.3,1.0,-35.4,5.73,2.33,-31.4,27.6
2012-01-25 02:02:00,0.0,1.9181,0.0010,403.45,0.22,-0.9,0.6,138.11,28.45,24.61,36.33,0.04,-272.74,-272.74,-50,553,-943,23.3,1.0,-35.9,23.3,1.0,-35.5,5.73,2.44,-31.3,27.8
2012-01-25 02:03:00,0.0,1.9186,0.0010,403.57,0.19,-1.0,0.0,138.10,28.48,24.60,36.33,0.04,-272.74,-272.74,-50,552,-944,23.4,1.0,-35.9,23.3,1.0,-35.4,5.73,2.53,-31.2,27.9
2012-01-25 02:04:00,0.0,1.9186,0.0011,403.59,0.26,-1.0,0.0,138.10,28.50,24.61,36.33,0.04,-272.74,-272.74,-51,552,-944,23.4,1.0,-35.8,23.4,1.0,-35.6,5.73,2.41,-31.1,28.0
2012-01-25 02:05:00,0.0,1.9180,0.0009,403.66,0.20,-0.8,1.6,138.09,28.53,24.61,36.33,0.04,-272.74,-272.74,-51,552,-944,23.5,1.0,-36.1,23.4,1.0,-35.6,5.73,2.33,-31.0,28.1
2012-01-25 02:06:00,0.0,1.9183,0.0008,403.62,0.26,-0.8,1.3,138.09,28.56,24.61,36.33,0.04,-272.73,-272.74,-50,553,-944,23.5,1.0,-36.1,23.5,1.0,-35.6,5.73,2.43,-30.9,27.9
2012-01-25 02:07:00,0.0,1.9190,0.0011,403.71,0.25,-0.6,2.5,138.09,28.58,24.61,36.33,0.04,-272.74,-272.74,-50,553,-944,23.5,0.9,-36.3,23.5,1.0,-35.8,5.73,2.44,-30.9,27.6
2012-01-25 02:08:00,0.0,1.9200,0.0010,403.97,0.22,-0.5,3.9,138.10,28.60,24.61,36.33,0.04,-272.74,-272.74,-50,553,-944,23.5,1.0,-36.2,23.5,1.0,-35.7,5.73,2.40,-30.9,27.3
2012-01-25 02:09:00,0.0,1.9199,0.0008,403.95,0.23,-0.5,3.3,138.10,28.61,24.61,36.33,0.04,-272.74,-272.74,-50,554,-944,23.5,1.0,-35.8,23.5,1.0,-35.4,5.73,2.41,-31.0,27.1
2012-01-25 02:10:00,0.0,1.9197,0.0008,403.95,0.22,-0.9,1.0,138.10,28.62,24.61,36.33,0.04,-272.74,-272.74,-50,554,-944,23.5,1.0,-35.5,23.5,1.0,-35.4,5.73,2.46,-31.0,27.0
2012-01-25 02:11:00,0.0,1.9201,0.0008,403.94,0.21,-1.0,0.0,138.11,28.62,24.61,36.33,0.04,-272.73,-272.74,-51,554,-944,23.5,1.0,-35.7,23.5,1.0,-35.3,5.73,2.53,-31.2,26.9
2012-01-25 02:12:00,0.0,1.9205,0.0008,403.99,0.25,-1.0,0.0,138.11,28.62,24.61,36.33,0.04,-272.73,-272.74,-51,554,-945,23.5,1.0,-35.8,23.4,1.0,-35.4,5.73,2.50,-31.3,26.7
2012-01-25 02:13:00,0.0,1.9204,0.0010,403.99,0.24,-1.0,0.3,138.12,28.61,24.61,36.33,0.04,-272.73,-272.74,-51,554,-944,23.5,1.0,-35.7,23.4,1.0,-35.3,5.73,2.39,-31.3,26.5
2012-01-25 02:14:00,0.0,1.9197,0.0010,403.83,0.23,-1.0,0.0,138.12,28.60,24.61,36.33,0.04,-272.74,-272.74,-50,554,-944,23.5,1.0,-35.5,23.4,1.1,-35.1,5.73,2.32,-31.4,26.5
2012-01-25 02:15:00,0.0,1.9203,0.0010,403.85,0.24,-1.0,0.0,138.12,28.59,24.61,36.33,0.04,-272.74,-272.74,-51,554,-945,23.5,1.0,-35.5,23.3,1.1,-35.1,5.73,2.36,-31.5,26.5
2012-01-25 02:16:00,0.0,1.9198,0.0010,403.69,0.21,-1.0,0.0,138.13,28.58,24.61,36.34,0.04,-272.73,-272.74,-51,554,-944,23.4,1.0,-35.4,23.3,1.1,-35.1,5.73,2.48,-31.5,26.3
2012-01-25 02:17:00,0.0,1.9184,0.0010,403.45,0.21,-1.0,0.0,138.13,28.56,24.61,36.33,0.04,-272.74,-272.74,-51,554,-944,23.4,1.0,-35.6,23.3,1.1,-35.2,5.73,2.54,-31.6,26.3
2012-01-25 02:18:00,0.0,1.9181,0.0012,403.34,0.27,-1.0,0.0,138.13,28.55,24.61,36.33,0.04,-272.74,-272.74,-50,554,-945,23.4,1.0,-35.6,23.3,1.1,-35.2,5.73,2.47,-31.7,26.3